EHI
0 0 0 0 0 0 0 0 0 0 0 0 0 0 0 0 0 0 0 0 0 0 0 0 0 0 0 0 0 0 0 0 0 0 0 0 0 0 0 0 0 0 0
0 0 0 0 0 0 0 0 0 0 0 0 0 0 0 0 0 0 0 0 0 0 0 0 0 0 0 0 0 0 0 0 0 0 0 0 0 0 0 0 0 0 0
0 0 0 0 0 0 0 0 0 0 0 0 0 0 0 0 0 0 0 0 0 0 0 0 0 0 0 0 0 0 0 0 0 0 0 0 0 0 0 0 0 0 0
0 0 0 0 0 0 0 0 0 0 0 0 0 0 0 0 0 0 0 0 0 0 0 0 0 0 0 0 0 0 0 0 0 0 0 0 0 0 0 0 0 0 0
0 0 0 0 0 0 0 0 0 0 0 0 0 0 0 0 0 0 0 0 0 0 0 0 0 0 0 0 0 0 0 0 0 0 0 0 0 0 0 0 0 0 0
0 0 0 0 0 0 0 0 0 0 0 0 0 0 0 0 0 0 0 0 0 0 0 0 0 0 0 0 0 0 0 0 0 0 0 0 0 0 0 0 0 0 0
0 0 0 0 0 0 0 0 0 0 0 0 0 0 0 0 0 0 0 0 0 0 0 0 0 0 0 0 0 0 0 0 0 0 0 0 0 0 0 0 0 0 0
0 0 0 0 0 0 0 0 0 0 0 0 0 0 0 0 0 0 0 0 0 0 0 0 0 0 0 0 0 0 0 0 0 0 0 0 0 0 0 0 0 0 0
0 0 0 0 0 0 0 0 0 0 0 0 0 0 0 0 0 0 0 0 0 0 0 0 0 0 0 0 0 0 0 0 0 0 0 0 0 0 0 0 0 0 0
0 0 0 0 0 0 0 0 0 0 0 0 0 0 0 0 0 0 0 0 0 0 0 0 0 0 0 0 0 0 0 0 0 0 0 0 0 0 0 0 0 0 0
0 0 0 0 0 0 0 0 0 0 0 0 0 0 0 0 0 0 0 0 0 0 0 0 0 0 0 0 0 0 0 0 0 0 0 0 0 0 0 0 0 0 0
0 0 0 0 0 0 0 0 0 0 0 0 0 0 0 0 0 0 0 0 0 0 0 0 0 0 0 0 0 0 0 0 0 0 0 0 0 0 0 0 0 0 0
0 0 0 0 0 0 0 0 0 0 0 0 0 0 0 0 0 0 0 0 0 0 0 0 0 0 0 0 0 0 0 0 0 0 0 0 0 0 0 0 0 0 0
0 0 0 0 0 0 0 0 0 0 0 0 0 0 0 0 0 0 0 0 0 0 0 0 0 0 0 0 0 0 0 0 0 0 0 0 0 0 0 0 0 0 0
0 0 0 0 0 0 0 0 0 0 0 0 0 0 0 0 0 0 0 0 0 0 0 0 0 0 0 0 0 0 0 0 0 0 0 0 0 0 0 0 0 0 0
0 0 0 0 0 0 0 0 0 0 0 0 0 0 0 0 0 0 0 0 0 0 0 0 0 0 0 0 0 0 0 0 0 0 0 0 0 0 0 0 0 0 0
0 0 0 0 0 0 0 0 0 0 0 0 0 0 0 0 0 0 0 0 0 0 0 0 0 0 0 0 0 0 0 0 0 0 0 0 0 0 0 0 0 0 0
0 0 0 0 0 0 0 0 0 0 0 0 0 0 0 0 0 0 0 0 0 0 0 0 0 0 0 0 0 0 0 0 0 0 0 0 0 0 0 0 0 0 0
0 0 0 0 0 0 0 0 0 0 0 0 0 0 0 0 0 0 0 0 0 0 0 0 0 0 0 0 0 0 0 0 0 0 0 0 0 0 0 0 0 0 0
0 0 0 0 0 0 0 0 0 0 0 0 0 0 0 0 0 0 0 0 0 0 0 0 0 0 0 0 0 0 0 0 0 0 0 0 0 0 0 0 0 0 0
0 0 0 0 0 0 0 0 0 0 0 0 0 0 0 0 0 0 0 0 0 0 0 0 0 0 0 0 0 0 0 0 0 0 0 0 0 0 0 0 0 0 0
0 0 0 0 0 0 0 0 0 0 0 0 0 0 0 0 0 0 0 0 0 0 0 0 0 0 0 0 0 0 0 0 0 0 0 0 0 0 0 0 0 0 0
0 0 0 0 0 0 0 0 0 0 0 0 0 0 0 0 0 0 0 0 0 0 0 0 0 0 0 0 0 0 0 0 0 0 0 0 0 0 0 0 0 0 0
0 0 0 0 0 0 0 0 0 0 0 0 0 0 0 0 0 0 0 0 0 0 0 0 0 0 0 0 0 0 0 0 0 0 0 0 0 0 0 0 0 0 0
0 0 0 0 0 0 0 0 0 0 0 0 0 0 0 0 0 0 0 0 0 0 0 0 0 0 0 0 0 0 0 0 0 0 0 0 0 0 0 0 0 0 0
0 0 0 0 0 0 0 0 0 0 0 0 0 0 0 0 0 0 0 0 0 0 0 0 0 0 0 0 0 0 0 0 0 0 0 0 0 0 0 0 0 0 0
Wind_Speed
3 1 2 2 3 3 4 4 4 4 4 3 3 3 3 3 3 3 4 4 4 4 4 4 4 5 5 6 6 5 6 6 4 4 5 6 8 8 7 7 7 8 8
4 2 2 2 3 3 4 4 4 4 4 3 3 3 4 3 3 3 4 4 4 4 4 4 4 5 5 6 6 6 5 4 4 4 4 4 5 7 7 6 7 8 6
5 4 3 3 3 3 4 4 5 5 4 4 3 3 3 3 3 3 3 4 4 4 4 4 4 4 5 5 5 6 6 5 5 4 4 4 5 3 4 6 6 6 5
6 5 4 3 3 3 3 4 4 4 4 3 3 4 4 4 4 4 4 4 4 4 4 4 4 4 4 5 5 5 5 6 5 4 5 5 4 4 4 4 4 5 5
5 5 4 4 3 3 3 3 3 3 4 4 4 4 4 4 4 4 4 4 4 4 4 4 4 4 4 4 5 5 5 5 5 4 4 4 5 6 6 5 4 4 4
5 5 4 3 3 2 2 3 3 4 4 4 4 5 5 5 5 5 4 4 3 3 3 4 4 4 3 4 4 4 5 4 5 4 4 4 4 4 5 6 5 4 3
4 4 4 4 3 3 3 3 4 4 4 4 4 4 5 5 5 5 4 4 3 3 3 3 3 3 3 4 4 4 4 4 4 4 4 4 4 4 4 5 5 5 3
4 4 4 4 4 4 4 4 4 4 4 4 4 4 4 3 3 4 4 4 3 3 4 3 3 3 3 3 3 3 3 3 3 4 4 3 3 3 3 4 4 5 4
4 5 5 5 5 5 5 5 5 5 4 5 4 4 4 3 3 3 3 3 3 3 3 3 3 3 3 3 3 2 3 3 3 3 3 3 3 3 3 3 4 4 5
5 5 5 5 5 5 5 5 5 5 5 5 4 3 4 3 3 3 3 4 4 3 3 3 3 3 3 3 3 3 3 3 3 2 3 3 2 2 2 3 3 4 5
6 6 5 5 5 5 5 5 5 5 5 4 4 4 4 3 3 3 3 3 3 3 3 3 3 3 3 3 2 2 2 3 2 2 2 2 3 2 2 2 3 3 4
6 6 6 5 5 6 5 5 5 5 5 4 4 4 3 3 3 3 3 3 3 3 3 3 2 2 2 2 2 3 3 3 2 2 2 3 2 3 3 2 3 3 3
7 6 6 6 6 6 6 6 6 5 5 4 4 4 4 3 3 3 3 2 2 2 2 2 2 2 2 2 2 2 3 2 3 3 3 3 3 3 3 3 3 3 3
7 7 7 6 6 6 6 6 6 5 4 4 4 4 4 3 3 3 3 2 2 2 1 2 2 2 2 2 2 2 2 2 2 2 2 3 3 3 4 3 4 4 4
8 7 7 7 6 6 6 6 6 5 4 4 4 4 4 3 3 3 2 2 1 2 1 1 1 2 2 2 2 2 2 2 2 2 2 2 2 3 3 3 4 4 4
9 8 8 7 7 7 6 6 6 5 5 5 5 4 4 4 3 3 2 2 1 1 1 1 1 2 2 2 2 2 2 2 2 2 2 1 2 2 3 4 4 4 5
9 9 8 8 7 7 7 7 6 5 5 6 5 5 5 4 4 3 3 3 2 2 2 1 2 2 2 2 2 2 2 2 2 2 1 1 1 2 2 3 3 4 4
9 8 7 7 7 6 6 6 5 5 6 6 6 5 5 5 4 4 4 3 3 2 2 2 2 2 2 2 2 2 2 2 1 1 1 1 2 2 3 3 3 4 4
9 8 7 7 6 6 6 5 5 6 6 6 6 6 6 6 5 5 4 4 3 3 3 2 3 3 2 2 2 3 2 2 2 1 1 2 2 2 3 3 3 4 3
8 8 7 6 6 6 5 6 7 7 7 7 6 6 6 6 6 5 5 4 4 4 3 3 3 3 2 1 2 3 2 2 2 1 1 1 2 3 4 3 3 4 4
9 8 7 7 6 5 6 7 8 9 7 6 5 5 6 6 6 5 4 4 4 3 3 3 3 3 3 2 3 3 2 2 2 1 1 1 2 3 4 4 3 4 4
9 8 7 7 6 5 7 8 9 7 5 5 5 6 6 5 5 5 5 4 4 4 4 3 3 3 3 3 3 3 3 2 2 2 1 1 2 3 4 3 3 4 4
10 8 8 8 7 6 7 9 8 5 5 6 6 6 6 6 6 6 5 5 5 4 4 4 3 3 2 2 4 4 4 3 2 1 1 2 2 3 2 2 4 3 2
10 8 8 8 8 7 8 8 6 5 6 7 7 6 6 6 6 5 5 5 5 5 5 4 4 3 3 3 3 3 3 3 2 2 2 2 2 2 2 2 2 2 2
9 8 9 9 9 8 8 7 6 6 7 7 6 6 6 6 6 6 5 6 6 6 5 5 4 4 4 4 5 3 3 3 2 2 2 2 2 2 1 1 2 2 2
9 9 9 10 9 8 8 7 7 7 8 7 7 6 5 5 5 5 5 7 7 7 8 7 5 4 4 3 6 6 5 5 4 3 3 2 2 2 2 2 2 2 2
Wind_Direction
237 254 289 312 320 332 335 334 331 332 328 321 313 306 306 311 310 317 319 307 297 287 273 268 260 251 245 246 246 248 247 244 242 252 256 253 245 242 240 240 244 242 240
228 234 261 292 309 321 327 323 324 324 323 319 316 301 301 301 306 307 309 310 305 297 281 273 268 260 253 247 244 245 249 249 234 241 258 259 248 236 236 235 238 242 237
236 237 248 274 298 311 321 319 318 317 318 316 304 293 282 278 284 293 297 303 302 296 289 280 272 270 263 257 251 246 246 249 241 236 242 250 252 273 236 236 238 240 239
235 243 249 264 284 302 311 307 310 313 314 307 293 292 289 290 297 299 297 300 297 296 295 290 282 276 272 267 259 250 249 250 245 241 245 261 273 264 263 240 240 245 246
238 243 250 262 275 291 301 302 305 308 309 301 294 288 282 286 290 291 293 296 296 298 300 293 285 281 278 277 273 264 254 251 250 245 246 253 256 252 257 260 249 246 248
246 251 253 257 265 278 292 299 300 306 309 302 294 288 286 287 290 292 293 293 295 304 308 298 290 287 282 280 278 272 261 255 255 252 244 244 246 249 251 255 255 258 263
249 250 251 254 260 268 278 287 293 297 300 296 295 290 283 282 283 290 292 294 298 303 309 308 303 299 294 289 284 276 271 263 260 259 254 251 256 263 262 262 264 267 271
250 252 255 257 258 262 266 274 283 288 290 289 292 291 286 283 285 288 289 290 294 297 306 309 306 305 303 296 290 283 277 272 265 264 262 259 264 269 264 265 268 270 266
253 256 257 257 258 257 258 265 273 280 284 286 286 286 285 280 282 283 281 283 285 293 299 299 299 307 308 302 296 281 272 266 262 262 263 264 267 264 265 264 258 262 265
262 259 255 255 256 255 256 258 264 272 279 282 282 283 285 285 283 278 277 277 280 284 289 292 292 298 302 297 286 280 281 274 272 270 264 266 268 266 269 267 267 263 263
273 264 259 257 254 252 251 253 258 265 271 275 275 277 281 283 281 277 282 283 282 282 282 283 285 290 293 289 279 275 272 262 263 267 263 266 268 264 263 266 266 263 262
278 270 263 257 251 250 250 252 254 256 260 265 266 269 273 275 276 279 284 286 282 284 283 284 282 286 286 282 273 266 261 257 258 261 261 266 270 272 271 267 263 262 265
279 272 263 255 252 251 251 252 252 251 251 250 252 257 259 262 269 276 282 288 288 288 288 277 271 271 274 274 274 268 265 263 260 263 265 270 276 277 276 274 269 268 267
277 271 264 257 251 248 247 249 251 247 244 245 246 250 254 259 264 271 275 286 295 294 296 297 284 280 279 277 275 267 263 269 277 275 272 277 276 278 280 276 275 274 272
275 267 261 258 251 247 245 244 244 240 236 239 242 246 252 256 259 261 267 278 287 288 285 295 303 298 289 293 285 266 259 263 268 274 275 287 300 303 294 291 291 288 281
276 270 263 257 251 245 242 239 238 234 228 232 237 240 242 243 245 249 251 251 258 269 277 287 295 301 299 321 309 291 269 271 270 277 286 296 292 308 314 315 317 309 293
285 277 268 259 252 246 238 235 234 229 227 231 232 230 232 237 239 237 237 239 242 242 249 263 276 277 286 300 283 275 270 268 276 283 298 313 329 319 319 323 315 308 307
290 282 275 267 258 247 238 235 229 225 227 230 230 227 225 229 230 230 233 237 235 232 236 244 258 270 285 294 281 261 251 254 269 282 288 290 312 332 324 314 312 313 317
293 286 279 269 258 245 235 228 227 225 227 230 230 226 224 226 224 225 230 228 226 227 231 234 238 248 259 270 275 266 239 236 249 269 286 291 299 331 317 303 305 308 318
292 286 280 267 254 243 227 223 227 227 230 232 231 226 223 225 226 226 225 222 222 225 222 224 229 237 248 245 256 267 242 237 244 256 279 300 313 324 313 297 295 301 314
292 286 273 262 253 240 223 226 230 233 235 232 228 225 223 224 226 224 217 214 215 217 218 225 230 235 245 236 240 256 252 243 243 251 272 304 323 321 319 308 300 305 311
287 280 270 263 256 237 226 232 236 237 230 224 225 225 223 220 218 218 213 211 211 215 218 225 232 230 229 239 239 237 246 261 247 256 273 304 321 312 313 316 325 321 314
284 275 266 264 254 236 231 238 241 231 220 220 224 226 223 220 216 214 210 207 211 216 219 221 228 229 223 225 233 233 230 230 243 254 285 301 305 302 304 320 325 317 307
279 270 262 258 255 243 236 241 241 226 220 224 225 221 218 217 214 213 211 210 210 214 216 219 224 226 225 223 218 220 218 216 224 231 233 256 274 283 303 310 309 308 314
276 265 256 257 258 250 243 239 230 218 222 227 226 221 218 215 211 212 214 217 220 221 218 219 218 219 226 223 218 210 207 209 212 209 220 234 248 260 276 291 299 303 303
275 266 259 258 259 252 245 237 225 217 220 224 223 218 215 212 210 210 218 224 231 229 232 236 232 231 235 215 209 212 211 208 201 208 223 228 237 252 267 278 283 285 292